Theta_e
317 319 341 349 352 355 354 356 356 358 356 351 350 349 348 351 351 353 354 354 351 349 350 350 355 355 353 350 346 346 343 336 337 336 337 338 343 342 339 336 331 328 325
316 319 343 348 350 354 354 355 355 356 353 351 351 349 349 351 351 351 353 353 353 354 353 353 347 346 342 340 337 338 338 336 335 332 329 325 329 336 338 332 327 325 323
315 323 341 348 353 354 354 355 353 351 352 356 353 352 353 353 349 351 349 353 352 350 348 345 344 337 333 332 334 332 333 333 337 331 326 320 317 319 323 325 321 325 322
316 326 343 349 352 353 355 354 353 355 353 355 353 354 345 343 342 338 340 343 343 342 340 337 335 340 335 330 330 331 333 331 326 327 325 324 321 312 310 318 319 322 323
316 322 343 349 351 353 352 353 354 354 353 353 354 349 341 337 335 334 335 338 341 342 340 340 340 336 327 330 326 327 326 324 322 322 321 322 320 322 315 310 314 320 322
316 321 343 349 351 353 352 353 352 351 352 352 352 343 337 334 332 333 336 335 334 334 336 335 334 329 330 327 326 325 325 324 325 324 321 317 314 314 315 313 316 316 320
315 321 340 345 349 350 351 350 349 349 351 351 347 346 342 341 341 340 333 328 329 333 335 330 331 330 328 326 326 325 325 324 323 323 319 318 317 318 318 316 315 315 319
316 322 339 344 347 348 349 344 347 347 348 349 349 347 346 345 342 337 334 331 330 328 326 330 329 325 323 324 325 323 323 324 322 320 321 319 321 322 320 317 314 312 315
316 328 339 344 346 347 344 345 346 346 346 349 348 347 349 343 338 338 335 329 326 326 325 324 323 323 323 324 325 323 322 323 322 322 322 322 324 323 320 318 315 311 309
318 332 339 343 344 342 344 347 347 346 345 347 347 340 334 335 333 333 330 332 331 328 324 322 321 322 321 321 321 321 321 321 321 322 323 322 321 321 321 317 317 316 313
324 335 337 337 336 339 341 345 346 342 344 341 331 330 334 333 332 330 332 330 327 325 322 322 320 320 320 319 321 321 319 319 321 321 320 319 321 319 319 319 319 318 317
331 331 328 330 332 335 336 337 338 338 332 329 329 331 333 332 330 327 327 327 324 323 321 320 318 317 317 320 320 319 320 320 319 321 320 317 317 319 321 318 319 319 319
325 324 325 326 326 328 329 328 329 328 326 325 327 330 331 330 328 326 325 323 322 321 320 318 317 316 317 318 320 321 320 321 321 319 317 317 318 317 318 319 318 317 316
321 321 321 322 322 322 323 322 322 323 323 325 324 322 323 322 322 322 322 321 320 319 317 317 317 317 317 318 319 320 321 320 321 320 319 318 317 316 316 316 317 316 314
317 317 318 319 318 319 318 318 321 323 322 321 319 317 318 318 318 319 320 319 317 316 316 316 316 316 314 310 317 320 318 319 319 320 318 317 311 306 307 310 312 311 309
314 317 318 317 316 316 316 316 317 319 321 321 318 317 316 317 317 318 317 316 315 315 315 314 314 313 309 297 300 305 317 318 317 316 316 316 313 311 305 304 304 303 306
314 315 317 317 316 316 317 317 317 317 316 315 316 316 317 317 317 316 315 315 314 314 314 313 312 310 308 296 296 302 318 316 314 310 312 312 310 306 307 307 307 307 302
313 314 316 318 320 322 322 323 324 321 320 319 317 318 317 316 315 315 313 313 312 311 311 311 312 309 302 295 295 298 316 315 314 312 312 312 307 299 298 304 307 307 308
313 315 318 321 324 323 323 323 322 321 320 318 317 317 316 315 315 313 312 312 310 310 310 310 310 309 305 294 294 302 315 312 311 308 304 305 303 292 292 300 302 302 303
312 314 318 320 320 320 321 319 318 317 316 316 316 317 316 315 313 312 312 312 311 310 309 308 309 301 308 292 294 298 312 311 311 309 306 293 294 290 290 297 298 297 297
312 316 317 317 318 319 318 316 315 314 315 316 317 315 313 312 312 312 312 311 311 310 310 308 308 307 303 301 294 294 307 307 306 304 303 300 291 291 290 291 296 294 294
311 314 314 314 315 316 315 312 311 313 314 313 314 314 313 312 310 310 309 308 308 307 307 308 306 307 304 295 293 294 294 297 303 300 298 296 290 290 290 293 289 290 293
310 311 311 311 312 313 312 310 310 311 311 312 312 312 312 310 311 309 307 305 305 304 304 305 304 304 305 304 294 293 294 294 300 298 292 290 290 291 294 292 291 293 297
307 308 307 306 306 308 308 309 310 310 310 309 309 308 307 306 306 305 305 304 304 303 303 303 303 302 301 300 302 302 302 297 298 296 299 294 293 290 293 295 296 297 296
305 306 305 304 305 306 306 307 308 309 308 307 307 306 305 305 303 302 301 301 298 297 302 301 301 299 296 294 291 292 295 296 294 295 298 297 296 295 294 295 296 296 296
302 301 302 301 304 304 305 307 309 309 307 306 305 304 304 302 301 299 296 289 290 290 289 289 294 295 290 289 289 289 289 289 289 296 295 294 294 293 292 292 293 294 294
Wind_Speed
14 16 16 18 18 20 20 19 19 18 12 10 11 9 9 8 7 6 7 8 6 6 6 3 3 3 4 8 7 5 7 7 7 5 9 8 7 7 5 4 5 6 10
13 17 19 19 21 22 21 20 19 18 13 11 8 8 8 8 7 7 6 6 7 7 7 8 8 9 6 5 7 10 6 5 4 5 7 6 5 7 6 6 6 8 9
15 18 21 20 22 22 21 19 18 16 13 11 9 8 8 8 6 8 7 9 11 13 11 11 9 9 7 4 6 7 7 3 4 4 4 6 6 8 4 5 6 8 7
16 18 22 23 22 20 19 19 18 18 14 14 12 12 9 10 4 7 8 9 13 12 10 8 8 8 6 6 5 4 2 1 3 2 1 3 3 4 6 4 8 7 5
19 20 22 22 22 20 19 18 17 16 16 12 12 10 12 9 8 8 10 6 8 11 12 12 13 10 6 6 7 6 3 2 1 2 2 3 3 3 6 9 11 8 6
19 20 21 21 21 19 19 18 19 18 17 15 17 17 18 14 12 11 10 8 5 5 8 9 9 9 7 9 7 5 4 3 1 2 3 4 4 6 6 8 8 8 7
20 21 24 23 21 22 20 18 17 17 17 18 18 19 20 19 18 15 8 9 8 7 7 6 8 8 6 8 7 4 4 3 3 2 3 3 3 5 5 6 8 10 7
19 23 24 22 23 22 22 18 20 22 20 19 19 16 17 11 11 12 11 8 6 7 5 7 8 10 9 7 7 4 4 4 2 1 3 3 1 2 4 6 7 8 6
19 24 25 22 23 23 21 23 23 21 20 18 16 16 12 12 10 13 10 8 10 8 9 6 8 9 9 7 5 4 3 2 1 1 1 4 2 3 3 3 4 6 8
22 23 24 22 19 19 20 21 22 22 20 19 15 11 14 13 13 12 13 13 11 11 10 9 8 9 7 5 3 3 3 2 1 1 2 4 4 3 2 3 5 5 5
24 22 19 16 20 17 19 20 21 19 18 15 16 15 15 16 14 13 12 12 12 11 10 9 8 8 6 4 4 4 4 4 4 3 2 3 4 5 4 5 5 6 7
24 21 19 20 19 19 19 15 17 16 16 16 17 16 17 17 15 14 13 13 11 10 10 8 7 6 6 5 4 4 3 3 3 3 2 3 4 5 2 6 5 7 9
24 19 19 18 17 17 17 16 17 18 18 17 17 18 17 16 16 15 14 13 11 10 8 7 7 6 5 5 4 3 3 3 4 2 3 3 5 6 7 7 7 8 9
20 18 18 18 17 15 17 16 17 16 16 18 19 18 16 17 16 15 14 13 11 10 9 8 7 7 5 5 3 3 2 0 0 2 4 5 7 8 9 8 8 9 11
20 18 20 18 18 18 17 17 16 17 17 19 18 17 16 15 15 15 14 12 11 10 9 9 8 7 6 7 6 2 1 1 1 1 4 7 6 4 7 8 9 10 10
20 20 21 21 19 18 18 17 16 16 18 20 21 19 18 17 16 15 14 13 12 11 10 9 8 8 7 11 10 9 0 1 4 5 7 5 10 4 4 2 5 5 9
23 22 21 19 18 19 18 19 19 18 19 19 17 16 17 17 16 15 14 13 12 10 10 9 9 10 9 13 11 10 0 4 5 5 4 4 8 11 12 10 9 8 10
23 21 19 20 20 20 20 21 21 21 21 21 18 18 18 17 16 15 14 13 10 10 9 9 9 9 9 12 13 12 3 4 5 8 8 8 8 11 13 14 11 12 12
19 19 19 20 20 23 22 22 21 20 20 19 18 18 17 17 16 15 13 11 11 9 9 9 8 8 10 12 13 13 3 5 6 8 10 10 10 13 15 14 13 13 11
19 20 21 23 22 21 21 21 20 20 19 18 17 17 16 15 15 14 12 10 10 10 8 8 8 7 10 13 13 13 3 4 2 4 10 17 12 11 14 13 12 13 13
21 22 23 21 21 20 20 21 20 19 18 17 17 16 15 14 14 13 10 9 9 8 8 8 8 10 10 11 13 16 8 7 6 6 7 9 10 8 10 11 12 13 15
23 23 22 21 19 19 19 21 19 18 17 16 17 16 15 12 11 12 10 9 8 7 6 6 7 8 10 10 10 11 12 13 7 7 8 8 8 9 4 9 11 15 16
22 21 20 21 18 18 17 20 18 18 18 17 16 15 14 13 12 11 9 8 7 5 5 5 6 6 6 7 10 7 6 7 6 7 3 7 9 10 3 3 12 12 10
21 20 20 19 19 17 17 18 17 17 17 17 15 14 13 12 11 8 6 6 5 6 5 5 6 6 8 8 9 6 5 5 5 2 2 4 8 6 5 7 8 9 9
19 18 17 17 18 17 17 16 16 16 16 15 14 13 11 12 11 11 9 9 10 10 6 7 8 7 8 8 9 11 9 9 8 11 6 8 8 9 9 9 10 9 10
18 17 17 15 17 16 16 15 15 15 15 14 11 10 10 10 9 10 11 18 14 15 14 16 11 10 10 7 9 8 8 10 14 4 8 8 9 9 10 10 10 10 11
Wind_Direction
238 223 192 187 181 183 177 181 180 174 162 162 184 174 173 169 164 167 150 160 167 169 176 166 104 52 58 65 44 54 41 29 10 350 336 291 267 261 299 297 321 325 327
227 219 183 189 185 182 178 182 178 168 170 178 179 172 167 158 153 132 140 134 131 118 107 94 94 80 59 64 64 54 38 50 4 15 306 287 256 237 243 304 316 351 319
224 200 189 188 187 180 175 180 172 158 178 160 142 140 121 108 116 108 97 100 101 100 102 96 91 82 86 342 31 48 34 324 52 332 313 297 306 346 270 300 326 330 337
228 206 190 188 183 175 173 169 168 156 166 166 151 149 160 121 117 105 111 111 112 115 121 125 127 135 130 111 83 52 72 323 259 182 299 340 323 312 306 318 324 310 333
212 209 193 181 176 172 166 163 157 159 152 165 148 122 110 114 106 103 107 116 140 149 144 137 128 115 110 99 88 80 68 90 277 265 291 284 289 267 298 306 321 325 346
208 206 188 176 176 166 155 151 154 157 154 155 129 136 127 131 129 136 145 140 120 110 130 116 107 97 98 91 96 104 103 78 68 37 327 326 320 318 300 306 320 328 345
201 196 181 178 164 159 153 149 147 149 153 139 143 144 142 148 151 151 134 128 143 145 114 106 105 104 103 107 105 113 100 83 58 8 325 305 316 302 316 309 329 330 317
192 193 177 168 157 151 152 139 146 142 146 149 150 143 146 153 133 133 142 149 119 101 107 114 120 115 115 110 114 119 104 98 90 39 326 277 286 306 340 1 340 325 329
194 180 170 155 153 154 140 153 145 142 147 146 140 145 149 121 130 133 124 112 113 117 112 109 96 94 92 91 107 102 120 134 176 137 273 291 352 28 30 344 323 332 327
188 174 157 150 147 139 150 143 142 142 142 141 136 106 109 115 117 125 130 131 119 117 124 105 96 95 91 88 76 153 140 143 125 136 75 345 5 26 336 265 241 229 289
169 158 124 127 137 139 136 138 138 135 143 114 107 114 126 118 127 126 129 125 123 126 120 114 109 98 97 96 104 100 126 112 96 74 63 23 3 347 349 319 332 321 331
156 123 123 134 130 125 127 127 129 123 108 111 115 117 123 124 124 120 118 120 120 114 109 108 101 100 99 97 108 119 117 93 77 77 0 352 344 336 353 323 343 331 318
115 122 129 124 115 115 117 110 114 111 111 113 115 121 125 121 120 120 121 120 118 110 104 98 92 90 90 109 105 102 81 46 47 58 289 5 353 358 351 332 339 340 331
131 127 119 115 110 111 112 110 108 110 115 118 115 115 116 117 119 120 118 115 111 105 97 90 88 86 95 98 89 81 69 319 164 95 25 4 5 358 344 335 347 354 329
129 123 117 116 116 113 111 107 110 119 118 115 116 114 117 116 117 112 107 106 101 95 93 92 86 75 62 33 355 45 327 285 82 73 358 60 35 44 11 344 357 345 327
120 119 119 118 117 115 111 112 114 114 120 121 119 121 118 115 112 110 107 101 93 87 84 80 78 69 57 6 352 324 8 84 34 27 16 6 43 23 156 43 301 302 329
125 121 120 118 117 115 119 121 123 121 115 114 116 119 119 117 112 108 102 97 95 96 92 90 82 67 54 7 352 331 276 68 52 40 20 349 48 13 348 328 296 256 217
118 115 117 118 118 126 122 124 126 124 123 124 126 125 117 115 113 106 103 101 101 95 90 87 82 75 53 9 352 334 75 84 74 39 25 27 28 22 348 322 333 331 322
113 113 116 116 122 123 125 126 125 124 122 121 119 118 117 115 113 108 108 108 105 96 87 80 71 74 55 14 351 328 128 88 73 79 42 24 24 10 349 336 341 329 333
108 115 118 118 117 120 122 120 119 117 115 117 117 116 114 113 110 114 109 108 101 96 91 85 80 48 66 31 0 349 28 52 74 125 120 67 24 9 358 342 349 336 344
112 117 115 114 117 120 118 114 113 109 109 114 112 107 108 112 109 108 99 99 86 87 82 83 77 77 35 54 19 9 42 8 18 27 17 43 8 357 358 333 6 336 313
114 112 113 111 110 114 115 111 107 109 110 108 109 113 114 111 111 110 104 97 97 83 76 85 90 92 79 42 54 38 32 356 30 26 27 23 337 318 318 342 316 298 302
107 108 108 109 110 111 112 109 111 113 113 110 111 111 110 105 103 105 104 101 85 81 74 73 82 80 72 104 121 91 70 39 27 24 37 276 279 294 242 318 282 308 1
106 106 104 105 104 104 105 106 112 111 110 111 110 110 108 105 99 96 93 93 91 76 75 75 75 73 56 32 10 39 31 57 332 143 37 320 277 254 306 344 359 9 2
107 100 103 107 108 110 108 109 114 118 115 113 113 114 107 100 94 69 47 75 49 24 61 55 41 54 61 54 37 30 21 3 8 316 17 14 12 7 6 3 2 5 357
98 100 98 101 101 107 109 114 117 120 118 119 119 112 114 108 107 103 88 51 56 52 50 43 51 80 72 77 62 48 21 349 322 17 21 18 12 8 3 1 359 0 2